Year,Month,Day,Hour,Minute,Value (Times are PST for temperature in C)
2008,04,21,00,00,0.80
2008,04,21,00,01,0.80
2008,04,21,00,02,0.80
2008,04,21,00,03,0.80
2008,04,21,00,04,0.90
2008,04,21,00,05,0.90
2008,04,21,00,06,0.90
2008,04,21,00,07,0.80
2008,04,21,00,08,0.80
2008,04,21,00,09,0.80
2008,04,21,00,10,0.80
2008,04,21,00,11,0.80
2008,04,21,00,12,0.80
2008,04,21,00,13,0.80
2008,04,21,00,14,0.80
2008,04,21,00,15,0.80
2008,04,21,00,16,0.80
2008,04,21,00,17,0.80
2008,04,21,00,18,0.80
2008,04,21,00,19,0.80
2008,04,21,00,20,0.80
2008,04,21,00,21,0.80
2008,04,21,00,22,0.80
2008,04,21,00,23,0.80
2008,04,21,00,24,0.70
2008,04,21,00,25,0.70
2008,04,21,00,26,0.70
2008,04,21,00,27,0.70
2008,04,21,00,28,0.70
2008,04,21,00,29,0.70
2008,04,21,00,30,0.80
2008,04,21,00,31,0.80
2008,04,21,00,32,0.80
2008,04,21,00,33,0.70
2008,04,21,00,34,0.70
2008,04,21,00,35,0.70
2008,04,21,00,36,0.70
2008,04,21,00,37,0.70
2008,04,21,00,38,0.70
2008,04,21,00,39,0.70
2008,04,21,00,40,0.70
2008,04,21,00,41,0.70
2008,04,21,00,42,0.70
2008,04,21,00,43,0.70
2008,04,21,00,44,0.60
2008,04,21,00,45,0.60
2008,04,21,00,46,0.60
2008,04,21,00,47,0.60
2008,04,21,00,48,0.60
2008,04,21,00,49,0.60
2008,04,21,00,50,0.60
2008,04,21,00,51,0.60
2008,04,21,00,52,0.60
2008,04,21,00,53,0.50
2008,04,21,00,54,0.50
2008,04,21,00,55,0.50
2008,04,21,00,56,0.50
2008,04,21,00,57,0.40
2008,04,21,00,58,0.40
2008,04,21,00,59,0.40
2008,04,21,01,00,0.40
2008,04,21,01,01,0.40
2008,04,21,01,02,0.40
2008,04,21,01,03,0.40
2008,04,21,01,04,0.40
2008,04,21,01,05,0.30
2008,04,21,01,06,0.30
2008,04,21,01,07,0.30
2008,04,21,01,08,0.30
2008,04,21,01,09,0.30
2008,04,21,01,10,0.30
2008,04,21,01,11,0.30
2008,04,21,01,12,0.30
2008,04,21,01,13,0.30
2008,04,21,01,14,0.20
2008,04,21,01,15,0.20
2008,04,21,01,16,0.20
2008,04,21,01,17,0.20
2008,04,21,01,18,0.20
2008,04,21,01,19,0.20
2008,04,21,01,20,0.10
2008,04,21,01,21,0.10
2008,04,21,01,22,0.10
2008,04,21,01,23,0.10
2008,04,21,01,24,0.10
2008,04,21,01,25,0.10
2008,04,21,01,26,0.10
2008,04,21,01,27,0.10
2008,04,21,01,28,0.10
2008,04,21,01,29,0.10
2008,04,21,01,30,0.10
2008,04,21,01,31,0.10
2008,04,21,01,32,0.10
2008,04,21,01,33,0.10
2008,04,21,01,34,0.10
2008,04,21,01,35,0.10
2008,04,21,01,36,0.10
2008,04,21,01,37,0.10
2008,04,21,01,38,0.10
2008,04,21,01,39,0.10
2008,04,21,01,40,0.20
2008,04,21,01,41,0.20
2008,04,21,01,42,0.20
2008,04,21,01,43,0.20
2008,04,21,01,44,0.20
2008,04,21,01,45,0.30
2008,04,21,01,46,0.30
2008,04,21,01,47,0.30
2008,04,21,01,48,0.30
2008,04,21,01,49,0.30
2008,04,21,01,50,0.30
2008,04,21,01,51,0.30
2008,04,21,01,52,0.30
2008,04,21,01,53,0.30
2008,04,21,01,54,0.40
2008,04,21,01,55,0.40
2008,04,21,01,56,0.40
2008,04,21,01,57,0.40
2008,04,21,01,58,0.40
2008,04,21,01,59,0.40
2008,04,21,02,00,0.50
2008,04,21,02,01,0.50
2008,04,21,02,02,0.50
2008,04,21,02,03,0.60
2008,04,21,02,04,0.60
2008,04,21,02,05,0.60
2008,04,21,02,06,0.60
2008,04,21,02,07,0.60
2008,04,21,02,08,0.60
2008,04,21,02,09,0.70
2008,04,21,02,10,0.70
2008,04,21,02,11,0.70
2008,04,21,02,12,0.70
2008,04,21,02,13,0.70
2008,04,21,02,14,0.70
2008,04,21,02,15,0.80
2008,04,21,02,16,0.80
2008,04,21,02,17,0.80
2008,04,21,02,18,0.80
2008,04,21,02,19,0.80
2008,04,21,02,20,0.80
2008,04,21,02,21,0.80
2008,04,21,02,22,0.80
2008,04,21,02,23,0.80
2008,04,21,02,24,0.80
2008,04,21,02,25,0.80
2008,04,21,02,26,0.80
2008,04,21,02,27,0.80
2008,04,21,02,28,0.80
2008,04,21,02,29,0.80
2008,04,21,02,30,0.90
2008,04,21,02,31,0.90
2008,04,21,02,32,0.90
2008,04,21,02,33,0.90
2008,04,21,02,34,0.90
2008,04,21,02,35,0.90
2008,04,21,02,36,0.90
2008,04,21,02,37,0.90
2008,04,21,02,38,0.90
2008,04,21,02,39,0.90
2008,04,21,02,40,0.90
2008,04,21,02,41,0.90
2008,04,21,02,42,0.90
2008,04,21,02,43,0.90
2008,04,21,02,44,0.90
2008,04,21,02,45,0.90
2008,04,21,02,46,0.80
2008,04,21,02,47,0.80
2008,04,21,02,48,0.80
2008,04,21,02,49,0.80
2008,04,21,02,50,0.80
2008,04,21,02,51,0.80
2008,04,21,02,52,0.70
2008,04,21,02,53,0.70
2008,04,21,02,54,0.70
2008,04,21,02,55,0.70
2008,04,21,02,56,0.70
2008,04,21,02,57,0.70
2008,04,21,02,58,0.70
2008,04,21,02,59,0.60
2008,04,21,03,00,0.60
2008,04,21,03,01,0.60
2008,04,21,03,02,0.60
2008,04,21,03,03,0.60
2008,04,21,03,04,0.60
2008,04,21,03,05,0.60
2008,04,21,03,06,0.60
2008,04,21,03,07,0.60
2008,04,21,03,08,0.60
2008,04,21,03,09,0.60
2008,04,21,03,10,0.60
2008,04,21,03,11,0.60
2008,04,21,03,12,0.60
2008,04,21,03,13,0.60
2008,04,21,03,14,0.60
2008,04,21,03,15,0.60
2008,04,21,03,16,0.60
2008,04,21,03,17,0.60
2008,04,21,03,18,0.60
2008,04,21,03,19,0.60
2008,04,21,03,20,0.60
2008,04,21,03,21,0.70
2008,04,21,03,22,0.70
2008,04,21,03,23,0.70
2008,04,21,03,24,0.70
2008,04,21,03,25,0.70
2008,04,21,03,26,0.70
2008,04,21,03,27,0.70
2008,04,21,03,28,0.70
2008,04,21,03,29,0.70
2008,04,21,03,30,0.70
2008,04,21,03,31,0.70
2008,04,21,03,32,0.70
2008,04,21,03,33,0.70
2008,04,21,03,34,0.70
2008,04,21,03,35,0.70
2008,04,21,03,36,0.70
2008,04,21,03,37,0.70
2008,04,21,03,38,0.70
2008,04,21,03,39,0.70
2008,04,21,03,40,0.70
2008,04,21,03,41,0.70
2008,04,21,03,42,0.70
2008,04,21,03,43,0.70
2008,04,21,03,44,0.70
2008,04,21,03,45,0.70
2008,04,21,03,46,0.70
2008,04,21,03,47,0.70
2008,04,21,03,48,0.70
2008,04,21,03,49,0.70
2008,04,21,03,50,0.70
2008,04,21,03,51,0.70
2008,04,21,03,52,0.70
2008,04,21,03,53,0.70
2008,04,21,03,54,0.70
2008,04,21,03,55,0.70
2008,04,21,03,56,0.70
2008,04,21,03,57,0.70
2008,04,21,03,58,0.70
2008,04,21,03,59,0.70
2008,04,21,04,00,0.70
2008,04,21,04,01,0.70
2008,04,21,04,02,0.70
2008,04,21,04,03,0.70
2008,04,21,04,04,0.70
2008,04,21,04,05,0.70
2008,04,21,04,06,0.70
2008,04,21,04,07,0.70
2008,04,21,04,08,0.70
2008,04,21,04,09,0.70
2008,04,21,04,10,0.70
2008,04,21,04,11,0.70
2008,04,21,04,12,0.70
2008,04,21,04,13,0.70
2008,04,21,04,14,0.70
2008,04,21,04,15,0.70
2008,04,21,04,16,0.70
2008,04,21,04,17,0.70
2008,04,21,04,18,0.80
2008,04,21,04,19,0.80
2008,04,21,04,20,0.80
2008,04,21,04,21,0.80
2008,04,21,04,22,0.80
2008,04,21,04,23,0.80
2008,04,21,04,24,0.80
2008,04,21,04,25,0.80
2008,04,21,04,26,0.90
2008,04,21,04,27,0.90
2008,04,21,04,28,0.90
2008,04,21,04,29,0.90
2008,04,21,04,30,0.90
2008,04,21,04,31,0.90
2008,04,21,04,32,0.90
2008,04,21,04,33,0.90
2008,04,21,04,34,1.00
2008,04,21,04,35,1.00
2008,04,21,04,36,1.00
2008,04,21,04,37,1.10
2008,04,21,04,38,1.10
2008,04,21,04,39,1.10
2008,04,21,04,40,1.10
2008,04,21,04,41,1.20
2008,04,21,04,42,1.20
2008,04,21,04,43,1.20
2008,04,21,04,44,1.20
2008,04,21,04,45,1.20
2008,04,21,04,46,1.20
2008,04,21,04,47,1.20
2008,04,21,04,48,1.20
2008,04,21,04,49,1.20
2008,04,21,04,50,1.20
2008,04,21,04,51,1.20
2008,04,21,04,52,1.20
2008,04,21,04,53,1.20
2008,04,21,04,54,1.20
2008,04,21,04,55,1.20
2008,04,21,04,56,1.30
2008,04,21,04,57,1.30
2008,04,21,04,58,1.30
2008,04,21,04,59,1.30
2008,04,21,05,00,1.30
2008,04,21,05,01,1.30
2008,04,21,05,02,1.30
2008,04,21,05,03,1.30
2008,04,21,05,04,1.30
2008,04,21,05,05,1.30
2008,04,21,05,06,1.30
2008,04,21,05,07,1.30
2008,04,21,05,08,1.30
2008,04,21,05,09,1.30
2008,04,21,05,10,1.30
2008,04,21,05,11,1.30
2008,04,21,05,12,1.30
2008,04,21,05,13,1.30
2008,04,21,05,14,1.30
2008,04,21,05,15,1.30
2008,04,21,05,16,1.30
2008,04,21,05,17,1.30
2008,04,21,05,18,1.30
2008,04,21,05,19,1.30
2008,04,21,05,20,1.30
2008,04,21,05,21,1.30
2008,04,21,05,22,1.30
2008,04,21,05,23,1.30
2008,04,21,05,24,1.30
2008,04,21,05,25,1.30
2008,04,21,05,26,1.30
2008,04,21,05,27,1.30
2008,04,21,05,28,1.30
2008,04,21,05,29,1.30
2008,04,21,05,30,1.30
2008,04,21,05,31,1.30
2008,04,21,05,32,1.30
2008,04,21,05,33,1.20
2008,04,21,05,34,1.20
2008,04,21,05,35,1.20
2008,04,21,05,36,1.20
2008,04,21,05,37,1.20
2008,04,21,05,38,1.20
2008,04,21,05,39,1.20
2008,04,21,05,40,1.20
2008,04,21,05,41,1.20
2008,04,21,05,42,1.20
2008,04,21,05,43,1.20
2008,04,21,05,44,1.10
2008,04,21,05,45,1.10
2008,04,21,05,46,1.10
2008,04,21,05,47,1.10
2008,04,21,05,48,1.10
2008,04,21,05,49,1.10
2008,04,21,05,50,1.10
2008,04,21,05,51,1.00
2008,04,21,05,52,1.00
2008,04,21,05,53,0.90
2008,04,21,05,54,0.90
2008,04,21,05,55,0.90
2008,04,21,05,56,0.90
2008,04,21,05,57,0.90
2008,04,21,05,58,0.90
2008,04,21,05,59,0.90
2008,04,21,06,00,0.90
2008,04,21,06,01,0.90
2008,04,21,06,02,0.90
2008,04,21,06,03,0.90
2008,04,21,06,04,0.90
2008,04,21,06,05,0.90
2008,04,21,06,06,0.90
2008,04,21,06,07,0.90
2008,04,21,06,08,0.90
2008,04,21,06,09,0.90
2008,04,21,06,10,1.00
2008,04,21,06,11,1.00
2008,04,21,06,12,1.00
2008,04,21,06,13,1.00
2008,04,21,06,14,1.00
2008,04,21,06,15,1.10
2008,04,21,06,16,1.10
2008,04,21,06,17,1.10
2008,04,21,06,18,1.10
2008,04,21,06,19,1.10
2008,04,21,06,20,1.20
2008,04,21,06,21,1.30
2008,04,21,06,22,1.40
2008,04,21,06,23,1.60
2008,04,21,06,24,1.70
2008,04,21,06,25,1.80
2008,04,21,06,26,1.90
2008,04,21,06,27,2.00
2008,04,21,06,28,2.00
2008,04,21,06,29,2.00
2008,04,21,06,30,2.00
2008,04,21,06,31,2.00
2008,04,21,06,32,2.00
2008,04,21,06,33,2.00
2008,04,21,06,34,2.20
2008,04,21,06,35,2.30
2008,04,21,06,36,2.40
2008,04,21,06,37,2.50
2008,04,21,06,38,2.60
2008,04,21,06,39,2.70
2008,04,21,06,40,2.70
2008,04,21,06,41,2.70
2008,04,21,06,42,2.70
2008,04,21,06,43,2.70
2008,04,21,06,44,2.80
2008,04,21,06,45,2.80
2008,04,21,06,46,2.80
2008,04,21,06,47,2.80
2008,04,21,06,48,2.80
2008,04,21,06,49,2.90
2008,04,21,06,50,2.90
2008,04,21,06,51,2.90
2008,04,21,06,52,2.90
2008,04,21,06,53,2.90
2008,04,21,06,54,3.00
2008,04,21,06,55,3.00
2008,04,21,06,56,3.00
2008,04,21,06,57,3.00
2008,04,21,06,58,3.00
2008,04,21,06,59,3.00
2008,04,21,07,00,3.10
2008,04,21,07,01,3.10
2008,04,21,07,02,3.10
2008,04,21,07,03,3.10
2008,04,21,07,04,3.10
2008,04,21,07,05,3.10
2008,04,21,07,06,3.10
2008,04,21,07,07,3.10
2008,04,21,07,08,3.10
2008,04,21,07,09,3.10
2008,04,21,07,10,3.10
2008,04,21,07,11,3.10
2008,04,21,07,12,3.10
2008,04,21,07,13,3.10
2008,04,21,07,14,3.10
2008,04,21,07,15,3.10
2008,04,21,07,16,3.20
2008,04,21,07,17,3.20
2008,04,21,07,18,3.20
2008,04,21,07,19,3.20
2008,04,21,07,20,3.20
2008,04,21,07,21,3.20
2008,04,21,07,22,3.20
2008,04,21,07,23,3.30
2008,04,21,07,24,3.30
2008,04,21,07,25,3.30
2008,04,21,07,26,3.30
2008,04,21,07,27,3.30
2008,04,21,07,28,3.30
2008,04,21,07,29,3.30
2008,04,21,07,30,3.30
2008,04,21,07,31,3.30
2008,04,21,07,32,3.30
2008,04,21,07,33,3.30
2008,04,21,07,34,3.30
2008,04,21,07,35,3.20
2008,04,21,07,36,3.20
2008,04,21,07,37,3.20
2008,04,21,07,38,3.10
2008,04,21,07,39,3.10
2008,04,21,07,40,3.10
2008,04,21,07,41,3.10
2008,04,21,07,42,3.00
2008,04,21,07,43,3.00
2008,04,21,07,44,3.00
2008,04,21,07,45,2.90
2008,04,21,07,46,2.90
2008,04,21,07,47,2.90
2008,04,21,07,48,2.90
2008,04,21,07,49,2.90
2008,04,21,07,50,2.90
2008,04,21,07,51,2.90
2008,04,21,07,52,2.90
2008,04,21,07,53,3.00
2008,04,21,07,54,3.00
2008,04,21,07,55,3.00
2008,04,21,07,56,3.00
2008,04,21,07,57,3.00
2008,04,21,07,58,2.90
2008,04,21,07,59,2.90
2008,04,21,08,00,2.90
2008,04,21,08,01,2.90
2008,04,21,08,02,2.90
2008,04,21,08,03,2.80
2008,04,21,08,04,2.80
2008,04,21,08,05,2.80
2008,04,21,08,06,2.80
2008,04,21,08,07,2.90
2008,04,21,08,08,2.90
2008,04,21,08,09,2.90
2008,04,21,08,10,3.00
2008,04,21,08,11,3.00
2008,04,21,08,12,3.10
2008,04,21,08,13,3.20
2008,04,21,08,14,3.20
2008,04,21,08,15,3.30
2008,04,21,08,16,3.40
2008,04,21,08,17,3.50
2008,04,21,08,18,3.60
2008,04,21,08,19,3.70
2008,04,21,08,20,3.80
2008,04,21,08,21,3.80
2008,04,21,08,22,3.80
2008,04,21,08,23,3.80
2008,04,21,08,24,3.80
2008,04,21,08,25,3.80
2008,04,21,08,26,3.90
2008,04,21,08,27,3.90
2008,04,21,08,28,3.90
2008,04,21,08,29,4.00
2008,04,21,08,30,4.00
2008,04,21,08,31,4.10
2008,04,21,08,32,4.10
2008,04,21,08,33,4.20
2008,04,21,08,34,4.20
2008,04,21,08,35,4.20
2008,04,21,08,36,4.30
2008,04,21,08,37,4.30
2008,04,21,08,38,4.30
2008,04,21,08,39,4.20
2008,04,21,08,40,4.10
2008,04,21,08,41,4.10
2008,04,21,08,42,4.10
2008,04,21,08,43,4.00
2008,04,21,08,44,4.00
2008,04,21,08,45,3.90
2008,04,21,08,46,4.00
2008,04,21,08,47,4.00
2008,04,21,08,48,4.00
2008,04,21,08,49,4.10
2008,04,21,08,50,4.10
2008,04,21,08,51,4.10
2008,04,21,08,52,4.10
2008,04,21,08,53,4.10
2008,04,21,08,54,4.10
2008,04,21,08,55,4.10
2008,04,21,08,56,4.10
2008,04,21,08,57,4.10
2008,04,21,08,58,4.10
2008,04,21,08,59,4.10
2008,04,21,09,00,4.10
2008,04,21,09,01,4.10
2008,04,21,09,02,4.10
2008,04,21,09,03,4.10
2008,04,21,09,04,4.10
2008,04,21,09,05,4.10
2008,04,21,09,06,4.10
2008,04,21,09,07,4.10
2008,04,21,09,08,4.10
2008,04,21,09,09,4.10
2008,04,21,09,10,4.10
2008,04,21,09,11,4.20
2008,04,21,09,12,4.20
2008,04,21,09,13,4.20
2008,04,21,09,14,4.20
2008,04,21,09,15,4.30
2008,04,21,09,16,4.30
2008,04,21,09,17,4.30
2008,04,21,09,18,4.40
2008,04,21,09,19,4.40
2008,04,21,09,20,4.50
2008,04,21,09,21,4.50
2008,04,21,09,22,4.50
2008,04,21,09,23,4.60
2008,04,21,09,24,4.60
2008,04,21,09,25,4.70
2008,04,21,09,26,4.70
2008,04,21,09,27,4.80
2008,04,21,09,28,4.80
2008,04,21,09,29,4.90
2008,04,21,09,30,4.90
2008,04,21,09,31,5.00
2008,04,21,09,32,4.90
2008,04,21,09,33,4.90
2008,04,21,09,34,4.90
2008,04,21,09,35,4.90
2008,04,21,09,36,4.90
2008,04,21,09,37,4.90
2008,04,21,09,38,4.90
2008,04,21,09,39,4.90
2008,04,21,09,40,4.90
2008,04,21,09,41,4.90
2008,04,21,09,42,4.90
2008,04,21,09,43,4.90
2008,04,21,09,44,5.00
2008,04,21,09,45,5.00
2008,04,21,09,46,5.00
2008,04,21,09,47,5.10
2008,04,21,09,48,5.10
2008,04,21,09,49,5.10
2008,04,21,09,50,5.10
2008,04,21,09,51,5.10
2008,04,21,09,52,5.10
2008,04,21,09,53,5.10
2008,04,21,09,54,5.10
2008,04,21,09,55,5.10
2008,04,21,09,56,5.10
2008,04,21,09,57,5.10
2008,04,21,09,58,5.10
2008,04,21,09,59,5.10
2008,04,21,10,00,5.10
2008,04,21,10,01,5.10
2008,04,21,10,02,5.10
2008,04,21,10,03,5.10
2008,04,21,10,04,5.10
2008,04,21,10,05,5.10
2008,04,21,10,06,5.10
2008,04,21,10,07,5.20
2008,04,21,10,08,5.20
2008,04,21,10,09,5.20
2008,04,21,10,10,5.20
2008,04,21,10,11,5.30
2008,04,21,10,12,5.30
2008,04,21,10,13,5.30
2008,04,21,10,14,5.30
2008,04,21,10,15,5.30
2008,04,21,10,16,5.40
2008,04,21,10,17,5.50
2008,04,21,10,18,5.50
2008,04,21,10,19,5.50
2008,04,21,10,20,5.40
2008,04,21,10,21,5.40
2008,04,21,10,22,5.40
2008,04,21,10,23,5.50
2008,04,21,10,24,5.50
2008,04,21,10,25,5.60
2008,04,21,10,26,5.70
2008,04,21,10,27,5.90
2008,04,21,10,28,6.00
2008,04,21,10,29,6.20
2008,04,21,10,30,6.40
2008,04,21,10,31,6.50
2008,04,21,10,32,6.60
2008,04,21,10,33,6.80
2008,04,21,10,34,6.70
2008,04,21,10,35,6.60
2008,04,21,10,36,6.40
2008,04,21,10,37,6.30
2008,04,21,10,38,6.20
2008,04,21,10,39,6.20
2008,04,21,10,40,6.20
2008,04,21,10,41,6.20
2008,04,21,10,42,6.10
2008,04,21,10,43,5.90
2008,04,21,10,44,5.80
2008,04,21,10,45,5.70
2008,04,21,10,46,5.70
2008,04,21,10,47,5.60
2008,04,21,10,48,5.60
2008,04,21,10,49,5.50
2008,04,21,10,50,5.50
2008,04,21,10,51,5.40
2008,04,21,10,52,5.40
2008,04,21,10,53,5.40
2008,04,21,10,54,5.40
2008,04,21,10,55,5.40
2008,04,21,10,56,5.40
2008,04,21,10,57,5.40
2008,04,21,10,58,5.50
2008,04,21,10,59,5.50
2008,04,21,11,00,5.60
2008,04,21,11,01,5.70
2008,04,21,11,02,5.70
2008,04,21,11,03,5.90
2008,04,21,11,04,6.00
2008,04,21,11,05,6.10
2008,04,21,11,06,6.30
2008,04,21,11,07,6.40
2008,04,21,11,08,6.40
2008,04,21,11,09,6.40
2008,04,21,11,10,6.30
2008,04,21,11,11,6.30
2008,04,21,11,12,6.30
2008,04,21,11,13,6.30
2008,04,21,11,14,6.30
2008,04,21,11,15,6.40
2008,04,21,11,16,6.40
2008,04,21,11,17,6.40
2008,04,21,11,18,6.40
2008,04,21,11,19,6.40
2008,04,21,11,20,6.30
2008,04,21,11,21,6.30
2008,04,21,11,22,6.40
2008,04,21,11,23,6.40
2008,04,21,11,24,6.50
2008,04,21,11,25,6.60
2008,04,21,11,26,6.70
2008,04,21,11,27,6.90
2008,04,21,11,28,6.90
2008,04,21,11,29,7.00
2008,04,21,11,30,7.00
2008,04,21,11,31,6.80
2008,04,21,11,32,6.70
2008,04,21,11,33,6.70
2008,04,21,11,34,6.60
2008,04,21,11,35,6.50
2008,04,21,11,36,6.50
2008,04,21,11,37,6.40
2008,04,21,11,38,6.40
2008,04,21,11,39,6.40
2008,04,21,11,40,6.30
2008,04,21,11,41,6.20
2008,04,21,11,42,6.10
2008,04,21,11,43,6.10
2008,04,21,11,44,6.00
2008,04,21,11,45,6.00
2008,04,21,11,46,5.90
2008,04,21,11,47,5.80
2008,04,21,11,48,5.80
2008,04,21,11,49,5.80
2008,04,21,11,50,5.80
2008,04,21,11,51,5.80
2008,04,21,11,52,5.80
2008,04,21,11,53,5.90
2008,04,21,11,54,5.90
2008,04,21,11,55,6.00
2008,04,21,11,56,6.00
2008,04,21,11,57,6.10
2008,04,21,11,58,6.10
2008,04,21,11,59,6.10
2008,04,21,12,00,6.10
2008,04,21,12,01,6.10
2008,04,21,12,02,6.10
2008,04,21,12,03,6.20
2008,04,21,12,04,6.10
2008,04,21,12,05,6.10
2008,04,21,12,06,6.20
2008,04,21,12,07,6.20
2008,04,21,12,08,6.20
2008,04,21,12,09,6.20
2008,04,21,12,10,6.20
2008,04,21,12,11,6.20
2008,04,21,12,12,6.20
2008,04,21,12,13,6.20
2008,04,21,12,14,6.30
2008,04,21,12,15,6.30
2008,04,21,12,16,6.20
2008,04,21,12,17,6.20
2008,04,21,12,18,6.20
2008,04,21,12,19,6.20
2008,04,21,12,20,6.20
2008,04,21,12,21,6.30
2008,04,21,12,22,6.30
2008,04,21,12,23,6.30
2008,04,21,12,24,6.30
2008,04,21,12,25,6.30
2008,04,21,12,26,6.30
2008,04,21,12,27,6.20
2008,04,21,12,28,6.20
2008,04,21,12,29,6.30
2008,04,21,12,30,6.30
2008,04,21,12,31,6.30
2008,04,21,12,32,6.30
2008,04,21,12,33,6.30
2008,04,21,12,34,6.30
2008,04,21,12,35,6.30
2008,04,21,12,36,6.30
2008,04,21,12,37,6.20
2008,04,21,12,38,6.10
2008,04,21,12,39,6.10
2008,04,21,12,40,6.30
2008,04,21,12,41,6.30
2008,04,21,12,42,6.40
2008,04,21,12,43,6.40
2008,04,21,12,44,6.50
2008,04,21,12,45,6.60
2008,04,21,12,46,6.60
2008,04,21,12,47,6.70
2008,04,21,12,48,6.80
2008,04,21,12,49,6.90
2008,04,21,12,50,7.00
2008,04,21,12,51,7.10
2008,04,21,12,52,7.10
2008,04,21,12,53,7.20
2008,04,21,12,54,7.20
2008,04,21,12,55,7.00
2008,04,21,12,56,6.80
2008,04,21,12,57,6.60
2008,04,21,12,58,6.50
2008,04,21,12,59,6.40
2008,04,21,13,00,6.30
2008,04,21,13,01,6.20
2008,04,21,13,02,6.10
2008,04,21,13,03,6.10
2008,04,21,13,04,6.10
2008,04,21,13,05,6.00
2008,04,21,13,06,6.00
2008,04,21,13,07,6.00
2008,04,21,13,08,6.00
2008,04,21,13,09,5.90
2008,04,21,13,10,5.90
2008,04,21,13,11,5.90
2008,04,21,13,12,5.90
2008,04,21,13,13,5.90
2008,04,21,13,14,5.90
2008,04,21,13,15,5.90
2008,04,21,13,16,5.90
2008,04,21,13,17,6.00
2008,04,21,13,18,6.10
2008,04,21,13,19,6.10
2008,04,21,13,20,6.10
2008,04,21,13,21,6.10
2008,04,21,13,22,6.10
2008,04,21,13,23,6.10
2008,04,21,13,24,6.10
2008,04,21,13,25,6.10
2008,04,21,13,26,6.10
2008,04,21,13,27,6.10
2008,04,21,13,28,6.10
2008,04,21,13,29,6.10
2008,04,21,13,30,6.20
2008,04,21,13,31,6.20
2008,04,21,13,32,6.20
2008,04,21,13,33,6.20
2008,04,21,13,34,6.20
2008,04,21,13,35,6.20
2008,04,21,13,36,6.30
2008,04,21,13,37,6.30
2008,04,21,13,38,6.30
2008,04,21,13,39,6.40
2008,04,21,13,40,6.40
2008,04,21,13,41,6.40
2008,04,21,13,42,6.50
2008,04,21,13,43,6.60
2008,04,21,13,44,6.70
2008,04,21,13,45,6.70
2008,04,21,13,46,6.70
2008,04,21,13,47,6.70
2008,04,21,13,48,6.80
2008,04,21,13,49,6.70
2008,04,21,13,50,6.70
2008,04,21,13,51,6.80
2008,04,21,13,52,6.80
2008,04,21,13,53,6.80
2008,04,21,13,54,6.90
2008,04,21,13,55,7.00
2008,04,21,13,56,7.00
2008,04,21,13,57,7.10
2008,04,21,13,58,7.10
2008,04,21,13,59,7.10
2008,04,21,14,00,7.20
2008,04,21,14,01,7.20
2008,04,21,14,02,7.20
2008,04,21,14,03,7.30
2008,04,21,14,04,7.40
2008,04,21,14,05,7.50
2008,04,21,14,06,7.60
2008,04,21,14,07,7.70
2008,04,21,14,08,7.60
2008,04,21,14,09,7.50
2008,04,21,14,10,7.40
2008,04,21,14,11,7.30
2008,04,21,14,12,7.30
2008,04,21,14,13,7.40
2008,04,21,14,14,7.40
2008,04,21,14,15,7.20
2008,04,21,14,16,7.20
2008,04,21,14,17,7.00
2008,04,21,14,18,6.90
2008,04,21,14,19,6.80
2008,04,21,14,20,6.80
2008,04,21,14,21,6.70
2008,04,21,14,22,6.60
2008,04,21,14,23,6.60
2008,04,21,14,24,6.60
2008,04,21,14,25,6.60
2008,04,21,14,26,6.60
2008,04,21,14,27,6.70
2008,04,21,14,28,6.80
2008,04,21,14,29,6.90
2008,04,21,14,30,7.10
2008,04,21,14,31,7.20
2008,04,21,14,32,7.40
2008,04,21,14,33,7.60
2008,04,21,14,34,7.80
2008,04,21,14,35,7.90
2008,04,21,14,36,8.00
2008,04,21,14,37,8.10
2008,04,21,14,38,8.00
2008,04,21,14,39,7.90
2008,04,21,14,40,7.80
2008,04,21,14,41,7.60
2008,04,21,14,42,7.40
2008,04,21,14,43,7.30
2008,04,21,14,44,7.20
2008,04,21,14,45,7.20
2008,04,21,14,46,7.20
2008,04,21,14,47,7.20
2008,04,21,14,48,7.20
2008,04,21,14,49,7.20
2008,04,21,14,50,7.20
2008,04,21,14,51,7.20
2008,04,21,14,52,7.20
2008,04,21,14,53,7.30
2008,04,21,14,54,7.40
2008,04,21,14,55,7.40
2008,04,21,14,56,7.40
2008,04,21,14,57,7.40
2008,04,21,14,58,7.40
2008,04,21,14,59,7.40
2008,04,21,15,00,7.30
2008,04,21,15,01,7.40
2008,04,21,15,02,7.40
2008,04,21,15,03,7.40
2008,04,21,15,04,7.40
2008,04,21,15,05,7.50
2008,04,21,15,06,7.50
2008,04,21,15,07,7.60
2008,04,21,15,08,7.70
2008,04,21,15,09,7.70
2008,04,21,15,10,7.70
2008,04,21,15,11,7.70
2008,04,21,15,12,7.60
2008,04,21,15,13,7.50
2008,04,21,15,14,7.40
2008,04,21,15,15,7.40
2008,04,21,15,16,7.40
2008,04,21,15,17,7.30
2008,04,21,15,18,7.30
2008,04,21,15,19,7.30
2008,04,21,15,20,7.20
2008,04,21,15,21,7.20
2008,04,21,15,22,7.20
2008,04,21,15,23,7.20
2008,04,21,15,24,7.10
2008,04,21,15,25,7.10
2008,04,21,15,26,7.10
2008,04,21,15,27,7.00
2008,04,21,15,28,7.00
2008,04,21,15,29,7.00
2008,04,21,15,30,7.00
2008,04,21,15,31,7.10
2008,04,21,15,32,7.20
2008,04,21,15,33,7.20
2008,04,21,15,34,7.20
2008,04,21,15,35,7.20
2008,04,21,15,36,7.30
2008,04,21,15,37,7.40
2008,04,21,15,38,7.50
2008,04,21,15,39,7.60
2008,04,21,15,40,7.80
2008,04,21,15,41,7.90
2008,04,21,15,42,7.90
2008,04,21,15,43,8.00
2008,04,21,15,44,8.00
2008,04,21,15,45,8.00
2008,04,21,15,46,7.90
2008,04,21,15,47,8.00
2008,04,21,15,48,8.10
2008,04,21,15,49,8.10
2008,04,21,15,50,8.10
2008,04,21,15,51,8.10
2008,04,21,15,52,8.20
2008,04,21,15,53,8.30
2008,04,21,15,54,8.40
2008,04,21,15,55,8.40
2008,04,21,15,56,8.30
2008,04,21,15,57,8.30
2008,04,21,15,58,8.30
2008,04,21,15,59,8.20
2008,04,21,16,00,8.10
2008,04,21,16,01,8.10
2008,04,21,16,02,8.20
2008,04,21,16,03,8.20
2008,04,21,16,04,8.20
2008,04,21,16,05,8.20
2008,04,21,16,06,8.30
2008,04,21,16,07,8.40
2008,04,21,16,08,8.40
2008,04,21,16,09,8.40
2008,04,21,16,10,8.30
2008,04,21,16,11,8.30
2008,04,21,16,12,8.30
2008,04,21,16,13,8.20
2008,04,21,16,14,8.20
2008,04,21,16,15,8.20
2008,04,21,16,16,8.20
2008,04,21,16,17,8.20
2008,04,21,16,18,8.20
2008,04,21,16,19,8.20
2008,04,21,16,20,8.30
2008,04,21,16,21,8.30
2008,04,21,16,22,8.40
2008,04,21,16,23,8.50
2008,04,21,16,24,8.60
2008,04,21,16,25,8.60
2008,04,21,16,26,8.60
2008,04,21,16,27,8.50
2008,04,21,16,28,8.40
2008,04,21,16,29,8.40
2008,04,21,16,30,8.40
2008,04,21,16,31,8.40
2008,04,21,16,32,8.30
2008,04,21,16,33,8.40
2008,04,21,16,34,8.50
2008,04,21,16,35,8.40
2008,04,21,16,36,8.40
2008,04,21,16,37,8.50
2008,04,21,16,38,8.60
2008,04,21,16,39,8.60
2008,04,21,16,40,8.60
2008,04,21,16,41,8.70
2008,04,21,16,42,8.90
2008,04,21,16,43,8.90
2008,04,21,16,44,9.00
2008,04,21,16,45,9.00
2008,04,21,16,46,9.00
2008,04,21,16,47,9.10
2008,04,21,16,48,9.10
2008,04,21,16,49,9.00
2008,04,21,16,50,8.90
2008,04,21,16,51,8.80
2008,04,21,16,52,8.80
2008,04,21,16,53,8.80
2008,04,21,16,54,8.80
2008,04,21,16,55,8.80
2008,04,21,16,56,8.80
2008,04,21,16,57,8.70
2008,04,21,16,58,8.60
2008,04,21,16,59,8.50
2008,04,21,17,00,8.30
2008,04,21,17,01,8.30
2008,04,21,17,02,8.30
2008,04,21,17,03,8.30
2008,04,21,17,04,8.30
2008,04,21,17,05,8.30
2008,04,21,17,06,8.20
2008,04,21,17,07,8.20
2008,04,21,17,08,8.10
2008,04,21,17,09,8.10
2008,04,21,17,10,8.10
2008,04,21,17,11,8.00
2008,04,21,17,12,8.00
2008,04,21,17,13,7.90
2008,04,21,17,14,7.80
2008,04,21,17,15,7.70
2008,04,21,17,16,7.70
2008,04,21,17,17,7.70
2008,04,21,17,18,7.70
2008,04,21,17,19,7.60
2008,04,21,17,20,7.50
2008,04,21,17,21,7.50
2008,04,21,17,22,7.50
2008,04,21,17,23,7.50
2008,04,21,17,24,7.60
2008,04,21,17,25,7.60
2008,04,21,17,26,7.70
2008,04,21,17,27,7.70
2008,04,21,17,28,7.70
2008,04,21,17,29,7.60
2008,04,21,17,30,7.60
2008,04,21,17,31,7.60
2008,04,21,17,32,7.60
2008,04,21,17,33,7.60
2008,04,21,17,34,7.70
2008,04,21,17,35,7.70
2008,04,21,17,36,7.70
2008,04,21,17,37,7.70
2008,04,21,17,38,7.70
2008,04,21,17,39,7.70
2008,04,21,17,40,7.70
2008,04,21,17,41,7.70
2008,04,21,17,42,7.70
2008,04,21,17,43,7.70
2008,04,21,17,44,7.70
2008,04,21,17,45,7.70
2008,04,21,17,46,7.70
2008,04,21,17,47,7.80
2008,04,21,17,48,7.80
2008,04,21,17,49,7.80
2008,04,21,17,50,7.90
2008,04,21,17,51,7.90
2008,04,21,17,52,7.90
2008,04,21,17,53,7.90
2008,04,21,17,54,7.80
2008,04,21,17,55,7.90
2008,04,21,17,56,7.90
2008,04,21,17,57,7.90
2008,04,21,17,58,7.90
2008,04,21,17,59,8.00
2008,04,21,18,00,8.00
2008,04,21,18,01,8.10
2008,04,21,18,02,8.10
2008,04,21,18,03,8.10
2008,04,21,18,04,8.10
2008,04,21,18,05,8.10
2008,04,21,18,06,8.10